CAPE
1666 1416 1521 1562 1781 1406 1227 1100 1049 1098 1150 1099 983 975 1124 1122 1137 1092 1046 951 888 828 827 785 747 672 415 578 612 480 390 240 0 0 0 0 0 0 0 0 0 0
1477 1414 1495 1642 1694 1584 1311 1151 1043 1070 1133 1107 1016 1036 1033 1057 1097 1073 1068 1008 871 782 782 730 611 591 608 591 411 443 348 34 0 0 0 0 0 0 0 0 0 0
1558 1481 1418 1602 1564 1530 1408 1204 1104 1074 1125 1104 1036 1020 1032 1045 1077 1059 1059 992 863 795 770 580 519 647 720 448 406 304 0 0 0 0 0 0 0 0 0 0 0 0
1631 1542 1438 1551 1647 1396 1254 1178 1116 1093 1123 1104 1066 1044 1040 1045 1028 1062 1040 974 877 814 794 789 633 671 512 543 461 0 0 0 0 0 0 0 0 0 0 0 0 0
1683 1612 1507 1342 1307 1465 1310 1224 1180 1168 1175 1165 1116 1077 1047 1025 1015 1041 1006 940 844 827 822 806 696 656 519 526 242 0 0 0 0 0 0 0 0 0 0 0 0 0
1708 1679 1566 1378 1305 1289 1298 1307 1248 1188 1218 1219 1181 1158 1083 1018 1022 1022 997 899 829 811 807 782 684 614 522 443 0 0 0 0 0 0 0 0 0 0 0 0 0 0
1740 1688 1630 1435 1261 1290 1315 1328 1282 1262 1242 1239 1204 1174 1107 971 999 1025 988 901 859 834 804 710 662 634 536 265 0 0 0 0 0 0 0 0 0 0 0 0 0 0
1779 1691 1641 1509 1300 1275 1300 1297 1278 1232 1253 1238 1216 1177 1129 1012 979 992 974 905 845 835 738 707 656 576 419 259 0 0 0 0 0 0 0 0 0 0 0 0 0 0
1770 1727 1663 1566 1360 1298 1300 1300 1269 1270 1269 1246 1223 1205 1121 1003 953 880 938 880 826 750 735 704 617 490 357 222 0 0 12 1 0 0 0 0 0 0 0 0 0 0
1791 1730 1690 1597 1458 1282 1278 1267 1282 1286 1278 1253 1252 1228 1095 970 853 906 764 811 753 729 698 653 530 415 292 56 0 0 7 2 0 0 0 0 0 0 0 0 0 0
1808 1729 1683 1648 1536 1342 1224 1207 1227 1265 1264 1271 1280 1235 1065 956 1013 930 795 699 742 736 698 584 450 329 240 0 0 0 3 4 0 0 0 0 0 0 0 0 0 0
1841 1755 1695 1662 1582 1423 1280 1265 1297 1289 1252 1279 1299 1211 1043 1082 1090 988 878 744 746 725 647 557 368 233 79 0 0 0 1 1 2 0 0 0 0 0 25 0 0 0
1866 1790 1703 1640 1625 1497 1348 1336 1395 1423 1349 1327 1308 1191 1072 1162 1109 1045 909 736 738 699 620 476 251 259 111 0 0 0 0 0 2 3 0 0 0 0 0 0 0 0
1913 1781 1646 1620 1625 1545 1428 1423 1454 1476 1372 1339 1326 1182 1170 1179 1086 1045 950 831 764 667 576 351 128 282 0 0 0 0 0 1 8 10 4 2 0 0 0 0 0 0
1953 1819 1633 1566 1658 1599 1493 1490 1503 1506 1372 1368 1327 1203 1175 1132 1075 1130 1034 829 735 643 471 281 249 163 0 0 0 0 0 5 16 26 22 4 0 0 0 0 0 0
1898 1745 1528 1516 1587 1642 1571 1500 1524 1500 1370 1346 1321 1201 1181 1125 1057 1106 970 782 695 562 363 250 155 0 0 0 0 0 0 0 25 22 14 3 0 0 0 0 0 0
1852 1746 1454 1362 1556 1658 1639 1556 1538 1484 1294 1283 1274 1174 1159 1116 1038 1054 917 740 646 526 333 254 159 0 0 0 0 0 0 0 15 17 9 0 0 0 0 0 0 0
1768 1584 1370 1292 1478 1684 1666 1574 1624 1478 1309 1180 1165 1100 1133 1048 1063 1088 875 682 534 526 354 159 0 0 0 0 0 0 0 0 0 6 4 0 0 0 0 0 0 0
1535 1434 1256 1203 1379 1601 1601 1537 1658 1570 1337 1108 1017 1034 1062 965 1052 932 787 561 560 558 418 178 0 0 0 0 0 0 0 0 0 0 0 0 0 0 0 0 0 0
1360 1381 1213 1134 1215 1480 1526 1459 1597 1630 1435 1257 1053 942 912 982 891 701 573 518 628 571 449 225 0 0 0 0 0 0 0 0 0 0 0 0 0 0 0 0 0 6
1252 1363 1285 1140 1130 1323 1358 1332 1438 1521 1508 1404 1181 934 970 989 812 688 419 532 644 621 476 250 0 0 0 0 0 0 0 0 0 0 0 0 0 0 0 1 9 11
1254 1311 1267 1147 1154 1222 1188 1262 1282 1401 1385 1164 936 947 1048 948 623 612 419 561 649 577 424 268 0 0 0 0 0 0 0 0 0 0 0 0 0 0 3 4 3 0
1257 1221 1250 1128 1146 1056 1055 1299 1261 1070 1044 862 1010 1139 1036 814 704 596 432 495 426 462 316 26 1 0 0 0 0 0 0 0 0 6 2 91 6 13 15 11 13 13
1283 1226 1176 1164 1026 987 1072 1292 1265 934 863 1043 959 990 1034 927 623 583 515 387 250 222 202 0 0 0 0 0 0 0 0 0 0 133 7 10 13 15 12 8 10 15
1244 1219 1201 1164 1021 1038 1086 1259 1208 727 825 820 884 1086 1138 1035 758 571 489 324 277 243 142 38 20 0 0 0 0 0 0 0 132 154 138 33 0 0 2 4 3 0
1234 1200 1189 1157 1128 1062 1103 1250 1085 699 743 758 948 1103 1212 1111 761 642 464 368 302 290 208 0 30 0 0 0 0 0 0 0 6 6 0 0 0 0 0 0 0 4
Wind_Speed
26 31 32 32 31 27 29 29 28 27 25 23 20 20 20 19 21 20 20 20 21 22 24 23 23 24 25 25 26 26 27 28 nan nan nan nan nan nan nan nan nan nan
25 33 34 35 33 31 28 28 28 27 24 22 20 22 20 20 20 20 19 19 21 23 26 25 22 23 26 25 26 28 29 nan nan nan nan nan nan nan nan nan nan nan
28 32 35 34 32 30 28 28 27 25 23 21 20 21 20 19 20 18 19 20 21 24 26 24 23 25 26 26 27 28 nan nan nan nan nan nan nan nan nan nan nan nan
27 31 33 34 34 30 28 28 26 25 24 22 20 19 20 19 19 20 19 20 22 24 25 25 26 27 26 27 28 nan nan nan nan nan nan nan nan nan nan nan nan nan
29 31 33 33 31 32 28 27 26 25 24 22 22 21 20 20 19 19 19 20 21 24 25 26 26 27 27 27 27 nan nan nan nan nan nan nan nan nan nan nan nan nan
29 31 32 32 31 30 27 26 24 24 24 22 22 21 20 20 20 19 19 21 22 24 25 26 26 27 27 27 nan nan nan nan nan nan nan nan nan nan nan nan nan nan
29 31 33 34 32 30 28 26 27 29 27 24 23 21 21 20 19 19 20 21 23 24 26 26 27 27 27 27 nan nan nan nan nan nan nan nan nan nan nan nan nan nan
30 32 35 35 33 32 29 27 29 30 28 26 23 21 20 20 20 19 20 22 24 26 27 27 27 28 28 27 nan nan nan nan nan nan nan nan nan nan nan nan nan nan
32 33 35 36 35 33 30 29 30 30 28 27 24 22 20 20 20 20 21 23 25 27 27 27 28 29 27 27 nan nan nan nan nan nan nan nan nan nan nan nan nan nan
32 34 36 36 35 33 30 28 30 30 29 27 25 23 21 20 20 21 22 24 26 27 27 28 28 28 28 nan nan nan nan nan nan nan nan nan nan nan nan nan nan nan
33 35 36 36 36 33 30 28 30 30 30 27 26 23 21 21 21 21 23 24 26 27 28 29 28 28 28 nan nan nan nan nan nan nan nan nan nan nan nan nan nan nan
34 36 36 37 36 32 29 28 29 32 31 27 25 23 22 21 22 22 23 25 26 28 29 29 29 28 nan nan nan nan nan nan nan nan nan nan nan nan nan nan nan nan
35 35 37 38 36 33 30 29 29 33 31 28 25 23 22 21 22 23 24 26 27 29 29 30 29 29 29 nan nan nan nan nan nan nan nan nan nan nan nan nan nan nan
35 36 38 39 37 33 30 30 30 34 31 28 25 23 21 22 23 24 25 27 28 29 29 30 30 30 nan nan nan nan nan nan nan nan nan nan nan nan nan nan nan nan
38 38 38 40 39 34 31 31 31 34 32 28 25 23 21 21 24 26 28 28 29 30 30 30 30 30 nan nan nan nan nan nan nan nan nan nan nan nan nan nan nan nan
41 41 39 43 40 33 31 32 34 35 32 28 25 23 22 23 25 26 28 30 31 30 30 29 29 nan nan nan nan nan nan nan nan nan nan nan nan nan nan nan nan nan
43 42 42 43 37 33 31 34 36 36 32 29 26 24 23 25 26 27 28 30 30 30 30 28 28 nan nan nan nan nan nan nan nan nan nan nan nan nan nan nan nan nan
44 42 41 39 37 33 33 34 38 35 33 30 27 26 25 25 25 27 29 30 30 30 29 29 nan nan nan nan nan nan nan nan nan nan nan nan nan nan nan nan nan nan
43 41 41 40 37 35 35 37 35 33 30 26 25 27 27 25 24 27 28 30 30 30 29 29 nan nan nan nan nan nan nan nan nan nan nan nan nan nan nan nan nan nan
42 41 40 39 37 34 36 39 37 33 31 28 29 30 27 25 25 27 29 29 29 29 30 30 nan nan nan nan nan nan nan nan nan nan nan nan nan nan nan nan nan nan
42 41 39 37 37 36 36 36 36 34 33 31 31 29 27 26 26 26 28 29 29 29 30 30 nan nan nan nan nan nan nan nan nan nan nan nan nan nan nan nan nan nan
42 41 40 39 38 35 37 38 37 36 35 34 31 29 27 28 27 27 29 29 29 30 30 31 nan nan nan nan nan nan nan nan nan nan nan nan nan nan nan nan nan nan
40 41 41 40 37 36 36 36 37 38 38 35 32 30 30 28 28 28 28 29 29 29 30 nan nan nan nan nan nan nan nan nan nan nan nan nan nan nan nan nan nan nan
44 43 39 38 37 36 35 36 37 39 38 36 34 33 30 30 30 28 27 28 29 30 31 nan nan nan nan nan nan nan nan nan nan 31 nan nan nan nan nan nan nan nan
42 41 40 40 38 39 36 35 37 40 41 38 35 33 32 32 31 29 27 26 27 29 32 nan nan nan nan nan nan nan nan nan 32 32 35 nan nan nan nan nan nan nan
43 41 41 43 44 41 41 37 39 44 42 39 37 35 34 33 31 29 26 26 27 29 31 nan nan nan nan nan nan nan nan nan nan nan nan nan nan nan nan nan nan nan
Wind_Direction
281 272 278 278 278 284 287 294 294 289 284 282 284 281 277 277 285 292 293 288 290 292 289 289 283 285 287 291 291 290 289 286 nan nan nan nan nan nan nan nan nan nan
278 269 270 270 272 273 285 292 291 286 284 283 279 271 270 277 284 289 291 287 284 285 289 286 284 287 288 288 290 290 289 nan nan nan nan nan nan nan nan nan nan nan
269 271 270 273 274 278 284 289 289 285 283 283 279 268 270 276 284 285 283 283 283 284 290 291 287 285 286 287 290 291 nan nan nan nan nan nan nan nan nan nan nan nan
271 274 273 270 270 280 287 288 287 281 279 278 276 270 270 275 280 283 282 284 285 287 289 292 290 290 291 291 290 nan nan nan nan nan nan nan nan nan nan nan nan nan
272 272 273 273 274 272 284 289 290 285 284 280 270 268 270 277 280 283 284 286 286 287 288 289 290 290 293 293 293 nan nan nan nan nan nan nan nan nan nan nan nan nan
268 272 275 275 276 278 285 288 290 288 288 283 271 269 274 280 283 285 288 289 287 286 288 287 288 290 294 293 nan nan nan nan nan nan nan nan nan nan nan nan nan nan
268 271 274 273 275 277 281 283 282 276 277 272 266 268 273 278 282 286 289 288 288 288 291 290 292 292 292 291 nan nan nan nan nan nan nan nan nan nan nan nan nan nan
268 269 272 271 271 274 278 280 274 274 273 269 268 268 274 279 284 282 285 288 288 290 290 292 294 294 293 293 nan nan nan nan nan nan nan nan nan nan nan nan nan nan
264 267 269 270 271 272 277 272 270 273 273 270 265 264 270 275 281 284 287 289 287 288 290 292 294 294 293 295 nan nan nan nan nan nan nan nan nan nan nan nan nan nan
263 265 268 269 270 270 276 274 268 271 270 267 265 264 271 272 276 284 285 286 287 287 290 291 294 293 294 nan nan nan nan nan nan nan nan nan nan nan nan nan nan nan
262 265 267 267 270 270 275 275 269 269 266 266 262 264 270 272 274 278 281 285 285 289 291 292 294 295 296 nan nan nan nan nan nan nan nan nan nan nan nan nan nan nan
262 262 267 270 270 270 274 273 268 266 266 262 264 268 270 275 280 280 284 287 287 289 290 292 293 295 nan nan nan nan nan nan nan nan nan nan nan nan nan nan nan nan
262 264 266 267 269 268 268 268 267 264 266 263 262 267 273 276 278 282 280 285 288 288 290 292 293 294 295 nan nan nan nan nan nan nan nan nan nan nan nan nan nan nan
261 261 263 265 264 266 265 266 264 262 264 262 262 267 272 277 281 284 281 282 284 287 289 290 291 293 nan nan nan nan nan nan nan nan nan nan nan nan nan nan nan nan
256 256 258 262 264 264 264 264 264 261 263 261 261 263 263 273 277 281 282 284 282 285 288 288 291 293 nan nan nan nan nan nan nan nan nan nan nan nan nan nan nan nan
255 254 258 255 257 263 263 263 260 260 261 262 262 263 263 267 273 277 281 284 285 286 287 287 289 nan nan nan nan nan nan nan nan nan nan nan nan nan nan nan nan nan
251 252 252 253 263 261 260 257 256 256 259 260 261 261 263 264 265 274 277 280 285 287 289 289 291 nan nan nan nan nan nan nan nan nan nan nan nan nan nan nan nan nan
248 251 254 260 260 261 260 257 253 257 259 261 260 261 260 263 266 274 276 279 280 286 289 290 nan nan nan nan nan nan nan nan nan nan nan nan nan nan nan nan nan nan
249 252 254 255 258 256 254 252 259 263 265 269 265 260 259 266 274 274 276 277 282 288 290 291 nan nan nan nan nan nan nan nan nan nan nan nan nan nan nan nan nan nan
248 251 252 255 255 258 253 251 257 263 265 264 259 257 259 266 272 277 274 278 284 288 290 292 nan nan nan nan nan nan nan nan nan nan nan nan nan nan nan nan nan nan
246 250 252 254 250 251 251 257 256 261 264 260 255 259 262 265 271 275 274 277 282 284 286 289 nan nan nan nan nan nan nan nan nan nan nan nan nan nan nan nan nan nan
244 247 249 247 246 252 250 256 256 258 259 257 256 255 255 259 265 269 274 277 280 283 283 288 nan nan nan nan nan nan nan nan nan nan nan nan nan nan nan nan nan nan
244 245 245 244 249 253 252 256 255 254 255 256 256 254 255 259 263 266 270 276 282 285 288 nan nan nan nan nan nan nan nan nan nan nan nan nan nan nan nan nan nan nan
237 239 244 248 252 252 252 254 254 252 256 253 254 253 255 258 260 263 268 275 284 288 290 nan nan nan nan nan nan nan nan nan nan 303 nan nan nan nan nan nan nan nan
239 241 241 246 253 246 250 253 253 251 252 253 251 253 255 257 259 261 265 272 280 284 293 nan nan nan nan nan nan nan nan nan 302 302 303 nan nan nan nan nan nan nan
238 241 243 245 245 245 241 248 246 245 250 254 252 251 252 256 259 260 270 275 278 278 281 nan nan nan nan nan nan nan nan nan nan nan nan nan nan nan nan nan nan nan